Preview of NWS' New Version of Forecast
This preview is not operational and should not be used for support decisions.

Regional Weather Roundup (RWR)

Issued by National Weather Service (NWS)

                            
000
ASUS43 KBIS 162310
RWRND 

NORTH DAKOTA REGIONAL WEATHER ROUNDUP
NATIONAL WEATHER SERVICE BISMARCK ND
600 PM CDT MON SEP 16 2019

NOTE: "FAIR" INDICATES FEW OR NO CLOUDS BELOW 12,000 FEET WITH NO
SIGNIFICANT WEATHER AND/OR OBSTRUCTIONS TO VISIBILITY.


NDZ001>003-009>011-017-170000-
NORTHWEST NORTH DAKOTA
  
CITY           SKY/WX    TMP DP  RH WIND       PRES   REMARKS
WILLISTON      SUNNY     88  64  44 E13       29.61F                  
MINOT          SUNNY     88  66  48 E7        29.65F HX  90           
MINOT AFB      SUNNY     87  68  53 E9        29.63F HX  90           
$$
 
NDZ018>021-031>035-040>046-170000-
SOUTHWEST NORTH DAKOTA
  
CITY           SKY/WX    TMP DP  RH WIND       PRES   REMARKS
BISMARCK       MOSUNNY   86  65  49 S12       29.68F                  
DICKINSON      SUNNY     90  57  32 SE17      29.65F                  
GARRISON         N/A     85  69  58 SE7       29.65F                  
HETTINGER ARPT MOSUNNY   83  62  49 SE8       29.70F                  
$$
 
NDZ004>008-012>016-024-026-027-054-170000-
NORTHEAST NORTH DAKOTA
  
CITY           SKY/WX    TMP DP  RH WIND       PRES   REMARKS
GRAND FORKS    PTSUNNY   87  71  58 S15       29.71F HX  93           
GRND FRKS AFB  MOSUNNY   86  73  65 S15       29.72F HX  92           
DEVILS LAKE    HAZE      84  70  61 SE12      29.72S VSB 1            
$$
 
NDZ022-023-025-028>030-036>039-047>053-170000-
SOUTHEAST NORTH DAKOTA
  
CITY           SKY/WX    TMP DP  RH WIND       PRES   REMARKS
FARGO          MOSUNNY   85  72  65 SE18G28   29.77S HX  91           
JAMESTOWN      SUNNY     85  70  60 S14G22    29.73S                  
$$